EDT,Max TemperatureF,Mean TemperatureF,Min TemperatureF,Max Dew PointF,MeanDew PointF,Min DewpointF,Max Humidity, Mean Humidity, Min Humidity, Max Sea Level PressureIn, Mean Sea Level PressureIn, Min Sea Level PressureIn, Max VisibilityMiles, Mean VisibilityMiles, Min VisibilityMiles, Max Wind SpeedMPH, Mean Wind SpeedMPH, Max Gust SpeedMPH,PrecipitationIn, CloudCover, Events, WindDirDegrees
2013-9-1,90,82,74,74,73,72,100,78,59,29.98,29.94,29.91,,,,15,5,31,0.00,,,210
2013-9-2,91,82,72,77,74,71,100,80,59,30.02,29.96,29.92,,,,16,4,22,0.01,,,232
2013-9-3,90,82,74,76,74,72,94,82,59,30.02,29.97,29.93,,,,10,2,14,0.22,,,236
2013-9-4,94,84,73,76,74,72,100,79,56,30.09,30.04,29.99,,,,10,2,14,0.03,,,230
2013-9-5,94,83,71,76,72,70,94,75,49,30.12,30.07,30.02,,,,10,3,14,0.00,,,241
2013-9-6,95,83,71,76,73,69,100,80,52,30.07,30.04,29.97,,,,20,3,25,0.24,,,353
2013-9-7,91,80,68,72,70,66,100,76,47,30.05,30.01,29.94,,,,10,3,14,0.00,,,37
2013-9-8,91,80,68,73,68,64,97,72,41,30.00,29.97,29.92,,,,10,2,15,0.00,,,52
2013-9-9,92,80,67,71,68,65,100,71,47,30.06,30.01,29.97,,,,10,2,15,0.00,,,76
2013-9-10,91,80,68,72,68,64,97,71,44,30.14,30.09,30.05,,,,12,4,20,0.00,,,59
2013-9-11,94,83,71,73,70,68,93,76,49,30.12,30.08,30.04,,,,13,4,23,0.01,,,57
2013-9-12,93,81,69,74,71,67,100,76,44,30.06,29.99,29.89,,,,10,2,15,0.00,,,16
2013-9-13,94,82,69,72,70,67,100,73,44,29.92,29.87,29.81,,,,12,2,15,0.00,,,294
2013-9-14,93,81,69,73,71,67,100,76,52,29.99,29.90,29.84,,,,12,2,15,0.00,,,220
2013-9-15,96,83,70,75,72,69,100,79,46,30.10,30.03,29.99,,,,22,3,29,0.17,,,90
2013-9-16,94,83,71,76,72,70,100,78,46,30.09,30.05,29.98,,,,13,2,18,0.01,,,340
2013-9-17,92,82,71,74,72,70,100,76,52,30.09,30.04,29.98,,,,13,5,20,0.02,,,54
2013-9-18,88,80,71,72,70,67,100,77,59,30.09,30.05,30.02,,,,14,7,23,0.01,,,56
2013-9-19,93,81,69,71,69,66,97,74,47,30.09,30.05,30.00,,,,10,4,16,0.01,,,55
2013-9-20,93,79,65,71,68,65,93,71,41,30.06,30.00,29.91,,,,8,3,12,0.02,,,63
2013-9-21,88,80,71,75,71,68,94,78,55,29.95,29.85,29.78,,,,13,4,25,0.03,,,180
2013-9-22,81,77,73,77,73,72,100,94,85,29.86,29.80,29.75,,,,18,2,23,0.97,,,188
2013-9-23,81,77,73,76,74,72,100,96,85,29.96,29.90,29.83,,,,13,2,23,1.16,,,99
2013-9-24,84,79,73,78,74,72,100,94,79,29.93,29.88,29.83,,,,14,3,20,1.74,,,106
2013-9-25,84,78,71,78,74,70,100,92,74,29.85,29.80,29.75,,,,18,4,23,0.43,,,219
2013-9-26,85,77,69,76,71,67,100,86,65,29.93,29.84,29.76,,,,15,5,22,0.03,,,357
2013-9-27,86,76,66,67,65,64,100,74,51,30.03,29.96,29.92,,,,14,6,20,0.00,,,26
2013-9-28,81,74,66,68,66,64,93,77,62,30.07,30.03,29.99,,,,14,6,22,0.01,,,49
2013-9-29,89,78,66,69,66,64,93,71,50,30.04,30.00,29.93,,,,9,5,14,0.00,,,44
2013-9-30,85,77,69,72,68,66,90,78,61,30.04,29.98,29.94,,,,8,2,12,0.01,,,73